sat.trackr.live / text

‹ back to catalog

STARLINK-37288

NORAD 68551 · 2026-070K

PAYLOAD ACTIVE UNKNOWN

§ Identity

Operator
Country
US
Launch date
2026-04-02
Launch site
AFETR
Launch vehicle
Mass (kg)
RCS (m²)

Purposes: comms

External: N2YO · Heavens-Above · Gunter

§ Orbital elements

Epoch: 2026-05-25T00:00:02.000160Z

Period
93.85 min
Inclination
53.1599°
Eccentricity
0.0000932
Mean motion
15.34371963 rev/d
Perigee alt
462.1 km
Apogee alt
463.4 km
Semi-major
6,840.9 km
B*
1.1531e-3
RAAN
7.7057°
Arg perigee
77.4389°
Mean anomaly
304.2727°
Rev number
599

§ Raw data

STARLINK-372881 68551U 26070K   26145.00002315  .00038749  00000+0  11531-2 0  99922 68551  53.1599   7.7057 0000932  77.4389 304.2727 15.34371963  5997

JSON: /api/v1/satellites/68551 · /tle

For live sub-satellite position, see the globe view (requires WebGL).

§ Visibility from observer

Set your observer location to see the next 7 days of passes ≥ 10°. The values pass through the URL so the page stays shareable.

No JS? Fill the form by hand. The geolocation button needs JavaScript.